Showing default

POLYITAN 1, 40042

Orbit data source: Space-Track

POLYITAN 1, 40042 is a payload satellite owned by Kyiv Polytechnic (UA) in SSO that was launched on Thu, 19 Jun 2014 UTC via a DNEPR launch vehicle from the Orenburg, Russia (OREN). Payloads include a variety of satellites, spacecraft, and rockets equipped with specific instruments for various scientific and technological missions. These include communications satellites like Starlink; space stations such as the ISS; scientific satellites like the Hubble; Earth observation satellites from companies like Planet Labs, Umbra, and HawkEye 360; GPS; miniature CubeSats for education and research; and military/defense satellites.

Loading next visibility...
POLYITAN 1 details
Identifier
40042, 2014-033AJ
Orbit
SSO
Last TLE update10 hours ago
Origin
Flag of UAKyiv Polytechnic (UA / UKR)
ManufacturerKyiv Polytechnic
MissionOperational Commercial Technology
Bus & MotorCUBESAT 1U, Unknown motor
Mass1 kg wet, 1 kg dry
Launch date (UTC)
2014-06-19 (11 years ago)
Launch vehicle
DNEPR
Launch site
Orenburg, Russia (OREN)
Object type
Payload
Rocket body
Debris
Shape & HBRBox, 0.1 m
Radar Cross Section0.015 m², Small (<0.1 m²)

Expand to show TLE details & history

TLE from 10 hours ago
0 POLYITAN 1
1 40042U 14033AJ  25024.18378595  .00024915  00000-0  14308-2 0  9999
2 40042  98.0933   5.4387 0013177 104.1013 256.1681 15.12440738576631
Epoch: 2025-01-24T04:24Z
Definitive object data (Epoch: 2025-01-24T04:24:39.106Z)
Latitude-0.00004°
Longitude175.52516°
Altitude534.006 km
Speed7.594 km/s
True Right ascension00h 21m 45s
True Declination0° 00' 00"
Sunlit
Object was in daylight at TLE epoch
Visualization TLE readout
Latitude-23.42001°
Longitude-7.52661°
Altitude539.262 km
Speed7.591 km/s
Apparent Right ascension08h 59m 07s
Apparent Declination-50° 04' 11"
Sunlit
Object is in daylight
Visualization observer readout
Local Sidereal Time16:06:13
Azimuth232.635° WSW
Elevation-39.357°
Doppler factor1
Orbital elements
Apogee altitude534.863 km
Perigee altitude516.668 km
Semi-major axis6,903.903 km
Eccentricity0.0013177
Inclination98.0933°
RAAN5.4387°
Arg. of periapsis104.1013°
True anomaly256.02154°
Mean anomaly256.1681°
Eccentric anomaly256.09481°
Mean motion3.78356 °/min
BSTAR0.0014308
Orbital period95.15 mins
Loading maneuver chart data...
Loading historical data...
Loading historical data...
Loading historical data...
Loading historical data...
Loading historical data...
Loading historical data...
Loading historical data...

POLYITAN 1 Visibility forecast

Observer location: undefined°, undefined

Span
Click to sort rows by Start time (UTC) header in descending order
Start Az.
Max El. time (UTC)
Max El. Az.
Max El.
End time (UTC)
End Az.
6 mins2025-01-24 22:00:59.313Z128.312° SE2025-01-24 22:03:59.313Z63.996° ENE26.613°2025-01-24 22:06:59.313Z9.697° NNE
5 mins2025-01-25 11:09:59.313Z41.358° NE2025-01-25 11:11:59.313Z108.168° ESE34.471°2025-01-25 11:14:59.313Z170.631° S
|